"TOA5","AWS1","CR1000","7964","CR1000.Std.14","CPU:AWS1_114.CR1","64363","TBL110"
"TIMESTAMP","RECORD","Wind_spd_WVc(1)","Wind_spd_WVc(2)","Air_Temp_Avg","Humidity_Avg","SW_upper_Wm2_Avg","Rain_Tot","Press_Avg","Issui_Tot","Depth_cm","SR50A_Raw","Quality","Ground_Temp_Avg(1)","Ground_Temp_Avg(2)","SW_lower_Wm2_Avg","Albedo_Avg","SWC_per(1)","SWC_per(2)","Period(1)","Period(2)"
"TS","RN","","","","","","","","","","","","","","","","","","",""
"","","WVc","WVc","Avg","Avg","Avg","Tot","Avg","Tot","Smp","Smp","Smp","Avg","Avg","Avg","Avg","Smp","Smp","Smp","Smp"
"2016-08-21 00:00:00",249613,0.172,65.46,19.29,100,0,0,861.7261,0,-4.555,3.118,181,22.32,21.71,0.2273725,0,49.73,57.22,33.23,35.03
"2016-08-21 00:10:00",249614,0.337,125.7,19.17,100,0,0,861.6123,0,-4.761,3.12,185,22.33,21.71,0.2273725,0,49.79,57.22,33.24,35.03
"2016-08-21 00:20:00",249615,0.08,114,19.12,100,0,0,861.5934,0,-4.793,3.121,194,22.31,21.71,0.2273725,0,49.79,57.16,33.24,35.02
"2016-08-21 00:30:00",249616,0.214,86.3,19,100,0,0,861.6017,0,-4.848,3.122,189,22.25,21.71,0.2273725,0,49.79,57.22,33.24,35.03
"2016-08-21 00:40:00",249617,0.415,121,18.94,100,0,0,861.6713,0,-4.776,3.122,189,22.24,21.71,0.231162,0,49.79,57.22,33.24,35.03
"2016-08-21 00:50:00",249618,0.098,125.3,18.85,100,0,0,861.8209,0,-4.927,3.123,189,22.24,21.71,0.3789541,0,49.73,57.22,33.23,35.03
"2016-08-21 01:00:00",249619,0.105,74.4,18.8,100,0,0,861.8378,0,-4.8,3.122,194,22.24,21.71,0.4357972,0,49.79,57.22,33.24,35.03
"2016-08-21 01:10:00",249620,0.113,4.699,18.86,100,0,0,861.8356,0,-4.903,3.123,194,22.27,21.71,0.5987474,0,49.73,57.16,33.23,35.02
"2016-08-21 01:20:00",249621,0,0,18.81,100,0,0,861.7008,0,-4.959,3.124,189,22.23,21.71,0.5570625,0,49.79,57.22,33.24,35.03
"2016-08-21 01:30:00",249622,0.021,11.31,18.77,100,0,0,861.6229,0,-4.982,3.124,194,22.16,21.71,0.6745383,0,49.79,57.16,33.24,35.02
"2016-08-21 01:40:00",249623,0,0,18.73,100,0,0,861.5934,0,-4.958,3.124,193,22.15,21.71,0.6821174,0,49.73,57.16,33.23,35.02
"2016-08-21 01:50:00",249624,0,0,18.79,100,0,0,861.6017,0,-4.982,3.124,188,22.15,21.71,0.511588,0,49.73,57.22,33.23,35.03
"2016-08-21 02:00:00",249625,0.008,25.81,18.77,100,0,0,861.6208,0,-4.911,3.124,194,22.15,21.7,0.3827437,0,49.73,57.22,33.23,35.03
"2016-08-21 02:10:00",249626,0,0,18.74,100,0,0,861.4375,0,-4.911,3.124,193,22.17,21.69,0.2766365,0,49.73,57.16,33.23,35.02
"2016-08-21 02:20:00",249627,0,0,18.8,100,0,0,861.5891,0,-4.958,3.124,194,22.12,21.7,0.4054809,0,49.73,57.16,33.23,35.02
"2016-08-21 02:30:00",249628,0,0,18.69,100,0,0,861.5934,0,-4.831,3.123,188,22.03,21.69,0.231162,0,49.73,57.16,33.23,35.02
"2016-08-21 02:40:00",249629,0.177,136.4,18.71,100,0,0,861.5934,0,-4.862,3.124,193,22.06,21.69,0.2425306,0,49.73,57.16,33.23,35.02
"2016-08-21 02:50:00",249630,0.312,128.5,18.61,100,0,0,861.5934,0,-4.989,3.125,194,22.06,21.69,0.2273725,0,49.73,57.16,33.23,35.02
"2016-08-21 03:00:00",249631,0.205,126.4,18.5,100,0,0,861.6039,0,-4.846,3.125,194,22.06,21.68,0.2273725,0,49.73,57.16,33.23,35.02
"2016-08-21 03:10:00",249632,0.079,127.8,18.48,100,0,0,861.6376,0,-4.973,3.126,180,22.03,21.68,0.2273725,0,49.68,57.16,33.22,35.02
"2016-08-21 03:20:00",249633,0.118,133.4,18.44,100,0,0,861.7703,0,-5.076,3.127,181,22.01,21.7,0.231162,0,49.73,57.16,33.23,35.02
"2016-08-21 03:30:00",249634,0.41,134,18.39,100,0,0,861.8419,0,-5.131,3.128,182,21.98,21.7,0.2273725,0,49.73,57.16,33.23,35.02
"2016-08-21 03:40:00",249635,0.271,111.4,18.24,100,0,0,861.8461,0,-4.987,3.128,181,21.98,21.69,0.2273725,0,49.73,57.16,33.23,35.02
"2016-08-21 03:50:00",249636,0.376,117,18.09,100,0,0,861.8588,0,-5.034,3.128,186,21.98,21.68,0.2235829,0,49.73,57.16,33.23,35.02
"2016-08-21 04:00:00",249637,0.186,126.7,18.1,100,0,0,861.9261,0,-5.137,3.129,181,22,21.64,0.231162,0,49.73,57.16,33.23,35.02
"2016-08-21 04:10:00",249638,0.137,58.83,18.05,100,0,0,862.063,0,-5.042,3.129,181,22.02,21.59,0.2425306,0,49.73,57.16,33.23,35.02
"2016-08-21 04:20:00",249639,0,0,18.09,100,0,0,862.0967,0,-5.01,3.128,186,21.98,21.58,0.4509554,0,49.73,57.16,33.23,35.02
"2016-08-21 04:30:00",249640,0,0,18.09,100,0,0,862.0988,0,-5.09,3.129,191,21.91,21.55,0.4547449,0,49.73,57.16,33.23,35.02
"2016-08-21 04:40:00",249641,0,0,18.14,100,0,0,862.0988,0,-4.931,3.127,192,21.89,21.54,0.4964299,0,49.73,57.16,33.23,35.02
"2016-08-21 04:50:00",249642,0,0,18.14,100,0,0,862.0988,0,-5.035,3.128,181,21.89,21.55,0.5381148,0,49.68,57.16,33.22,35.02
"2016-08-21 05:00:00",249643,0,0,18.23,100,0,0,862.0988,0,-4.773,3.125,196,21.92,21.55,0.4547449,0,49.68,57.16,33.22,35.02
"2016-08-21 05:10:00",249644,0,0,18.15,100,0.05109369,0,862.1305,0,-4.622,3.124,194,21.96,21.56,0.4850613,0.482,49.68,57.1,33.22,35.01
"2016-08-21 05:20:00",249645,0,0,18.13,100,1.454205,0,862.221,0,-4.597,3.124,190,21.9,21.57,0.6745383,0.603,49.73,57.1,33.23,35.01
"2016-08-21 05:30:00",249646,0,0,18.17,100,4.99539,0,862.2885,0,-4.82,3.125,189,21.82,21.59,1.083809,0.226,49.73,57.1,33.23,35.01
"2016-08-21 05:40:00",249647,0,0,18.22,100,8.788114,0,862.3516,0,-4.828,3.126,188,21.8,21.59,1.470342,0.167,49.73,57.1,33.23,35.01
"2016-08-21 05:50:00",249648,0,0,18.27,100,12.95421,0,862.3538,0,-4.877,3.126,192,21.8,21.61,1.890981,0.147,49.68,57.1,33.22,35.01
"2016-08-21 06:00:00",249649,0,0,18.27,100,19.76147,0,862.3516,0,-5.235,3.129,198,21.8,21.61,2.55794,0.129,49.68,57.1,33.22,35.01
"2016-08-21 06:10:00",249650,0,0,18.4,100,39.58189,0,862.3516,0,-5.235,3.129,180,21.82,21.61,5.184092,0.132,49.68,57.1,33.22,35.01
"2016-08-21 06:20:00",249651,0,0,18.42,100,57.93631,0,862.5244,0,-4.481,3.121,213,21.8,21.62,7.476764,0.129,49.68,57.1,33.22,35.01
"2016-08-21 06:30:00",249652,0,0,18.54,100,65.99339,0,862.6044,0,-4.068,3.117,202,21.79,21.62,8.227094,0.125,49.68,57.16,33.22,35.02
"2016-08-21 06:40:00",249653,0,0,18.72,100,83.82115,0,862.6149,0,-4.593,3.12,210,21.75,21.62,10.51219,0.125,49.68,57.1,33.22,35.01
"2016-08-21 06:50:00",249654,0,0,18.9,100,90.4987,0,862.6507,0,-4.458,3.118,197,21.71,21.61,10.61829,0.117,49.68,57.1,33.22,35.01
"2016-08-21 07:00:00",249655,0,0,18.98,100,86.57629,0,862.8129,0,-4.354,3.117,202,21.71,21.61,9.924808,0.115,49.73,57.1,33.23,35.01
"2016-08-21 07:10:00",249656,0.051,353.6,18.96,100,124.0319,0,862.8572,0,-3.949,3.114,204,21.71,21.61,15.63565,0.126,49.68,57.1,33.22,35.01
"2016-08-21 07:20:00",249657,0.023,16.81,19,100,165.6457,0,862.8572,0,-3.161,3.105,244,21.71,21.6,20.67573,0.125,49.68,57.04,33.22,34.99
"2016-08-21 07:30:00",249658,0.004,5.866,19.18,100,138.4246,0,862.775,0,-4.371,3.116,185,21.71,21.58,16.57545,0.12,49.68,57.1,33.22,35.01
"2016-08-21 07:40:00",249659,0.023,161.1,19.17,100,166.0781,0,862.6044,0,-4.578,3.118,178,21.71,21.6,20.581,0.124,49.68,57.04,33.22,34.99
"2016-08-21 07:50:00",249660,0.168,15.58,19.43,99.7,267.2789,0,862.6044,0,-4.069,3.111,192,21.71,21.59,18.12158,0.093,49.68,57.1,33.22,35.01
"2016-08-21 08:00:00",249661,0.392,17.72,19.68,100,556.0329,0,862.6044,0,-3.902,3.108,198,21.71,21.59,30.48307,0.054,49.68,57.1,33.22,35.01
"2016-08-21 08:10:00",249662,0.161,358.1,20.15,98.7,447.3448,0,862.6591,0,-4.348,3.11,192,21.7,21.55,38.37289,0.09,49.68,57.04,33.22,34.99
"2016-08-21 08:20:00",249663,0.37,18.1,20.12,93.8,378.9147,0,862.6037,0,-3.942,3.107,198,21.68,21.53,36.48949,0.096,49.68,57.04,33.22,34.99
"2016-08-21 08:30:00",249664,0.464,20.77,20.28,91.7,409.9914,0,862.5972,0,-4.037,3.107,196,21.67,21.5,38.02046,0.089,49.68,57.04,33.22,34.99
"2016-08-21 08:40:00",249665,0.424,26.28,20.52,91.2,145.6563,0,862.5765,0,-3.805,3.102,198,21.67,21.43,63.88029,0.497,49.68,57.1,33.22,35.01
"2016-08-21 08:50:00",249666,0.391,27.86,21.13,89,150.4905,0,862.5785,0,-3.907,3.1,205,21.64,21.45,61.65962,0.44,49.68,57.04,33.22,34.99
"2016-08-21 09:00:00",249667,0.255,8.83,21.36,86.8,352.2831,0,862.5461,0,-3.637,3.099,214,21.66,21.41,37.65288,0.107,49.68,57.04,33.22,34.99
"2016-08-21 09:10:00",249668,0.373,356.9,21.55,87.3,711.2673,0,862.7033,0,-2.94,3.09,253,21.67,21.44,71.31158,0.097,49.68,57.04,33.22,34.99
"2016-08-21 09:20:00",249669,0.293,349.7,21.28,88.9,254.9339,0,862.7532,0,-3.213,3.094,236,21.67,21.45,28.77398,0.111,49.68,57.04,33.22,34.99
"2016-08-21 09:30:00",249670,0.242,19.3,21.26,90.7,326.1074,0,862.6093,0,-4.147,3.103,188,21.67,21.45,41.68495,0.128,49.62,56.98,33.2,34.98
"2016-08-21 09:40:00",249671,0.416,8,21.35,89.2,393.1816,0,862.5674,0,-4.459,3.106,212,21.65,21.45,51.83334,0.132,49.62,57.04,33.2,34.99
"2016-08-21 09:50:00",249672,0.224,339.4,21.44,89.2,392.9222,0,862.7392,0,-4.497,3.105,191,21.64,21.45,52.55335,0.134,49.62,57.04,33.2,34.99
"2016-08-21 10:00:00",249673,0.461,1.558,21.95,88.7,521.2342,0,862.7712,0,-5.104,3.109,189,21.63,21.42,65.82433,0.126,49.62,56.98,33.2,34.98
"2016-08-21 10:10:00",249674,0.298,77.14,21.84,89,311.8955,0,862.81,0,-4.736,3.105,180,21.67,21.43,39.51354,0.127,49.62,56.98,33.2,34.98
"2016-08-21 10:20:00",249675,0.399,2.367,22,87.2,518.9271,0,862.6891,0,-3.593,3.094,185,21.74,21.42,67.06351,0.126,49.62,57.04,33.2,34.99
"2016-08-21 10:30:00",249676,0.614,15.62,22.44,81.8,814.2958,0,862.5694,0,-4.388,3.098,199,21.72,21.41,102.8102,0.124,49.62,57.04,33.2,34.99
"2016-08-21 10:40:00",249677,0.131,305.5,22.37,81.2,427.9135,0,862.5563,0,-4.237,3.097,185,21.71,21.41,50.95796,0.111,49.62,57.04,33.2,34.99
"2016-08-21 10:50:00",249678,0.188,333.6,22.55,78.47,319.025,0,862.5477,0,-3.357,3.089,203,21.77,21.41,39.33544,0.12,49.57,56.98,33.19,34.98
"2016-08-21 11:00:00",249679,0.414,347.9,23.26,75.88,967.231,0,862.5125,0,-4.029,3.09,196,21.84,21.4,129.3674,0.131,49.57,56.98,33.19,34.98
"2016-08-21 11:10:00",249680,0.623,27.66,23.11,70.28,420.3281,0,862.2888,0,-4.322,3.096,198,21.85,21.38,49.68846,0.108,49.62,56.98,33.2,34.98
"2016-08-21 11:20:00",249681,0.072,344.1,22.85,74.36,364.9818,0,862.29,0,-4.232,3.094,189,21.87,21.35,45.95576,0.126,49.57,56.98,33.19,34.98
"2016-08-21 11:30:00",249682,0.264,329.1,23.01,74.25,433.2823,0,862.298,0,-3.698,3.09,182,21.91,21.35,56.31637,0.127,49.62,56.98,33.2,34.98
"2016-08-21 11:40:00",249683,0.267,235.7,23.49,73,736.0517,0,862.3076,0,-4.444,3.089,181,22,21.34,104.1517,0.134,49.57,56.98,33.19,34.98
"2016-08-21 11:50:00",249684,0.199,183.7,23.7,72.42,307.1359,0,862.2934,0,-4.408,3.095,191,22.04,21.35,34.58714,0.109,49.57,56.98,33.19,34.98
"2016-08-21 12:00:00",249685,0.179,141,23.43,74.39,295.9718,0,862.2868,0,-3.99,3.091,188,22.08,21.33,33.16584,0.107,49.51,56.93,33.18,34.97
"2016-08-21 12:10:00",249686,0.199,355.4,23.68,72.61,834.1081,0,862.288,0,-3.618,3.082,192,22.14,21.34,124.0343,0.141,49.57,56.93,33.19,34.97
"2016-08-21 12:20:00",249687,0.292,111.3,24.56,71.67,622.7466,0,862.2676,0,-4.06,3.086,188,22.18,21.34,82.48656,0.128,49.51,56.93,33.18,34.97
"2016-08-21 12:30:00",249688,0.337,190.3,25.09,70.39,1032.448,0,862.0957,0,-5.067,3.09,186,22.22,21.34,156,0.149,49.51,56.93,33.18,34.97
"2016-08-21 12:40:00",249689,0.428,86.4,25.54,65.19,862.1667,0,862.031,0,-4.306,3.085,192,22.25,21.32,126.6902,0.14,49.51,56.93,33.18,34.97
"2016-08-21 12:50:00",249690,0.268,156.3,24.49,72.06,378.3526,0,861.8987,0,-3.845,3.086,188,22.27,21.3,39.72873,0.093,49.51,56.93,33.18,34.97
"2016-08-21 13:00:00",249691,0.181,161.1,24.8,70.87,971.3898,0,861.8183,0,-4.15,3.079,200,22.38,21.31,146.4868,0.147,49.46,56.93,33.16,34.97
"2016-08-21 13:10:00",249692,0.494,63.53,25.71,64.92,718.9234,0,861.7797,0,-3.946,3.082,220,22.44,21.29,97.23044,0.124,49.46,56.87,33.16,34.95
"2016-08-21 13:20:00",249693,0.436,25.68,24.59,68.89,402.5082,0,861.782,0,-3.457,3.08,195,22.48,21.29,50.62022,0.121,49.46,56.87,33.16,34.95
"2016-08-21 13:30:00",249694,0.456,343.7,25.25,68.12,1079.207,0,861.782,0,-3.6,3.076,186,22.59,21.3,161.9018,0.149,49.41,56.87,33.15,34.95
"2016-08-21 13:40:00",249695,0.28,154,26.04,66.22,1040.859,0,861.7751,0,-3.547,3.071,203,22.65,21.31,147.3943,0.141,49.46,56.87,33.16,34.95
"2016-08-21 13:50:00",249696,0.265,282.2,25.87,66.13,680.2952,0,861.7389,0,-3.226,3.072,194,22.72,21.31,83.59946,0.117,49.41,56.81,33.15,34.94
"2016-08-21 14:00:00",249697,0.333,329.8,25.36,65.9,791.0334,0,861.5276,0,-3.178,3.072,193,22.79,21.31,94.49142,0.116,49.41,56.81,33.15,34.94
"2016-08-21 14:10:00",249698,0.288,198.9,25.97,64.28,922.5609,0,861.5471,0,-4.033,3.073,196,22.86,21.31,101.2751,0.109,49.35,56.81,33.14,34.94
"2016-08-21 14:20:00",249699,0.28,220.7,26.29,64.43,875.7425,0,861.4642,0,-3.647,3.076,208,22.93,21.3,76.98145,0.088,49.35,56.81,33.14,34.94
"2016-08-21 14:30:00",249700,0.237,315.9,25.39,68.44,651.573,0,861.3122,0,-3.735,3.08,185,23.02,21.32,49.96759,0.071,49.3,56.81,33.12,34.94
"2016-08-21 14:40:00",249701,0.294,302.2,24.92,67.96,443.8887,0,861.3582,0,-3.63,3.079,209,23.12,21.31,39.05727,0.094,49.3,56.75,33.12,34.93
"2016-08-21 14:50:00",249702,0.246,305.7,25.15,68.12,518.9968,0,861.4426,0,-3.772,3.079,237,23.17,21.33,53.91165,0.107,49.3,56.75,33.12,34.93
"2016-08-21 15:00:00",249703,0.423,300.3,24.86,69.32,364.0777,0,861.3298,0,-5.106,3.094,194,23.3,21.33,28.45884,0.084,49.3,56.75,33.12,34.93
"2016-08-21 15:10:00",249704,0.113,241.3,24.46,70.52,150.2182,0,861.4313,0,-3.686,3.084,189,23.37,21.35,14.41152,0.096,49.24,56.75,33.11,34.93
"2016-08-21 15:20:00",249705,0.01,7.733,24.21,73.38,169.7329,0,861.541,0,-3.734,3.084,195,23.47,21.35,19.31146,0.113,49.35,56.75,33.14,34.93
"2016-08-21 15:30:00",249706,0.155,248.7,24.25,73.08,219.4984,0,861.553,0,-4.538,3.089,194,23.53,21.38,28.77776,0.131,49.3,56.75,33.12,34.93
"2016-08-21 15:40:00",249707,0.102,166.7,24.53,73.1,159.1686,0,861.5627,0,-4.491,3.089,180,23.61,21.41,18.95149,0.117,49.24,56.7,33.11,34.91
"2016-08-21 15:50:00",249708,0.072,77.6,24.28,73.65,73.46093,0,861.6175,0,-4.218,3.09,188,23.66,21.45,5.316726,0.065,49.24,56.7,33.11,34.91
"2016-08-21 16:00:00",249709,0.013,346.3,23.71,77.68,27.77531,0,861.7951,0,-3.275,3.083,197,23.73,21.48,0.3183214,0.009,49.19,56.7,33.09,34.91
"2016-08-21 16:10:00",249710,0.242,276,23,82.1,67.95461,0,861.8334,0,-3.688,3.094,188,23.77,21.48,7.120547,0.103,49.19,56.7,33.09,34.91
"2016-08-21 16:20:00",249711,0.217,293.4,21.92,95.4,50.42161,0,861.9524,0,-3.304,3.091,189,23.81,21.49,5.710838,0.113,49.19,56.7,33.09,34.91
"2016-08-21 16:30:00",249712,0.153,64.31,21.96,95.6,48.84163,0,862.0885,0,-3.337,3.092,185,23.87,21.51,6.468747,0.133,49.13,56.75,33.08,34.93
"2016-08-21 16:40:00",249713,0.363,34.29,21.7,97.8,63.6588,0,862.0984,0,-3.266,3.092,194,23.93,21.53,8.647733,0.136,49.13,56.7,33.08,34.91
"2016-08-21 16:50:00",249714,0.35,49.61,21.92,94.3,131.8531,0,862.098,0,-3.091,3.086,189,23.91,21.6,19.75109,0.149,49.19,56.7,33.09,34.91
"2016-08-21 17:00:00",249715,0.067,95.5,22.79,87.2,154.3108,0,862.0936,0,-3.073,3.084,185,23.93,21.57,23.63916,0.153,49.19,56.7,33.09,34.91
"2016-08-21 17:10:00",249716,0.092,70.08,22.92,87.7,107.7841,0,862.0934,0,-3.025,3.084,189,23.99,21.54,16.05629,0.149,49.13,56.64,33.08,34.9
"2016-08-21 17:20:00",249717,0.042,353.3,22.66,90.3,57.07165,0,862.0986,0,-2.87,3.085,177,24.02,21.54,7.893614,0.138,49.13,56.7,33.08,34.91
"2016-08-21 17:30:00",249718,0.126,323.3,22.22,93.7,85.66445,0,862.0988,0,-2.695,3.084,181,24.02,21.62,12.06211,0.141,49.13,56.7,33.08,34.91
"2016-08-21 17:40:00",249719,0.125,356.6,22.02,94.7,99.01955,0,862.1895,0,-2.912,3.087,195,24.02,21.69,14.20699,0.143,49.13,56.7,33.08,34.91
"2016-08-21 17:50:00",249720,0.041,22.27,22.09,93.9,74.03082,0,862.3475,0,-3.271,3.09,189,24.02,21.67,10.39471,0.14,49.13,56.7,33.08,34.91
"2016-08-21 18:00:00",249721,0.066,301.2,22,94.9,64.83002,0,862.3516,0,-3.337,3.092,180,24.02,21.64,9.644382,0.148,49.08,56.64,33.07,34.9
"2016-08-21 18:10:00",249722,0.011,288.6,21.86,96.7,24.16731,0,862.3832,0,-3.393,3.093,191,24.02,21.63,3.444693,0.135,49.08,56.64,33.07,34.9
"2016-08-21 18:20:00",249723,0,0,21.79,94.1,11.7319,0,862.6002,0,-3.37,3.093,186,24,21.7,1.743189,0.147,49.08,56.64,33.07,34.9
"2016-08-21 18:30:00",249724,0.026,66.86,21.69,95.2,3.026318,0,862.5623,0,-3.242,3.092,191,23.96,21.8,0.3979018,0.135,49.08,56.64,33.07,34.9
"2016-08-21 18:40:00",249725,0.117,320.6,21.55,97.7,1.084758,0,862.6044,0,-3.213,3.094,190,23.96,21.8,0.322111,0.291,49.13,56.64,33.08,34.9
"2016-08-21 18:50:00",249726,0.051,278.7,21.22,100,0.03930283,0,862.6044,0,-3.477,3.097,183,23.91,21.8,0.05305357,0.016,49.08,56.58,33.07,34.88
"2016-08-21 19:00:00",249727,0,0,21.25,99.9,0,0,862.6044,0,-3.652,3.098,196,23.92,21.75,0.1629503,0,49.08,56.58,33.07,34.88
"2016-08-21 19:10:00",249728,0.036,291.8,21.16,99.9,0,0,862.6074,0,-3.509,3.098,197,23.94,21.79,0.2349515,0,49.08,56.58,33.07,34.88
"2016-08-21 19:20:00",249729,0,0,21.11,100,0,0,862.713,0,-3.43,3.097,197,23.94,21.89,0.231162,0,49.13,56.58,33.08,34.88
"2016-08-21 19:30:00",249730,0,0,21.14,99.9,0,0,862.848,0,-3.373,3.096,196,23.94,21.88,0.4699031,0,49.08,56.58,33.07,34.88
"2016-08-21 19:40:00",249731,0,0,21.2,99.8,0,0,862.8801,0,-3.373,3.096,193,23.92,21.86,0.4471658,0,49.08,56.58,33.07,34.
"2016-08-21 19:40:00",249731,0,0,21.2,99.8,0,0,862.8801,0,-3.373,3.096,193,23.92,21.86,0.4471658,0,49.08,56.58,33.07,34.88
"2016-08-21 19:50:00",249732,0,0,21.12,99.9,0,0,863.0951,0,-3.326,3.096,196,23.86,21.89,0.2880051,0,49.08,56.58,33.07,34.88
"2016-08-21 20:00:00",249733,0,0,21.12,99.9,0,0,863.0951,0,-3.82,3.101,197,23.84,21.9,0.5191671,0,49.03,56.58,33.05,34.88
"2016-08-21 20:10:00",249734,0.031,119.7,20.97,100,0,0,863.1014,0,-3.725,3.101,199,23.88,21.96,0.2955842,0,49.08,56.52,33.07,34.87
"2016-08-21 20:20:00",249735,0.103,151.3,20.71,100,0,0,862.9372,0,-3.383,3.1,193,23.87,21.98,0.1364235,0,49.08,56.52,33.07,34.87
"2016-08-21 20:30:00",249736,0.032,174.3,20.42,100,0,0,863.0172,0,-3.128,3.098,197,23.75,21.98,0.1743189,0,49.08,56.52,33.07,34.87
"2016-08-21 20:40:00",249737,0,0,20.29,100,0,0,863.1035,0,-3.057,3.098,199,23.76,21.98,0.2538992,0,49.08,56.52,33.07,34.87
"2016-08-21 20:50:00",249738,0.016,176.2,20.26,100,0,0,863.0635,0,-3.543,3.102,198,23.77,21.98,0.5456939,0,49.08,56.52,33.07,34.87
"2016-08-21 21:00:00",249739,0.077,205.2,20.05,100,0,0,862.9561,0,-3.352,3.102,201,23.75,21.98,0.462324,0,49.03,56.52,33.05,34.87
"2016-08-21 21:10:00",249740,0.126,203.6,19.81,100,0,0,862.9688,0,-3.233,3.102,189,23.66,22,0.3903227,0,49.08,56.52,33.07,34.87
"2016-08-21 21:20:00",249741,0,0,20.01,100,0,0,862.9456,0,-3.368,3.101,199,23.69,21.99,0.7882245,0,49.08,56.46,33.07,34.86
"2016-08-21 21:30:00",249742,0,0,20.27,100,0,0,863.1014,0,-3.527,3.103,199,23.72,22.02,0.8715944,0,49.03,56.46,33.05,34.86
"2016-08-21 21:40:00",249743,0,0,20.12,100,0,0,863.1077,0,-3.424,3.102,200,23.64,22.06,0.4320077,0,49.03,56.46,33.05,34.86
"2016-08-21 21:50:00",249744,0,0,20.15,100,0,0,863.0088,0,-3.734,3.105,197,23.65,22.06,0.3865332,0,49.03,56.46,33.05,34.86
"2016-08-21 22:00:00",249745,0,0,20.09,100,0,0,862.8593,0,-3.759,3.105,202,23.63,22.06,0.553273,0,49.08,56.46,33.07,34.86
"2016-08-21 22:10:00",249746,0,0,20.06,100,0,0,862.8845,0,-3.87,3.107,203,23.55,22.05,0.4850613,0,49.03,56.46,33.05,34.86
"2016-08-21 22:20:00",249747,0.133,188.4,19.85,100,0,0,862.9098,0,-4.061,3.11,201,23.54,22.04,0.3296901,0,49.03,56.46,33.05,34.86
"2016-08-21 22:30:00",249748,0.244,188.4,19.66,100,0,0,863.0256,0,-3.99,3.11,198,23.54,22.03,0.3600064,0,49.03,56.46,33.05,34.86
"2016-08-21 22:40:00",249749,0.021,188.4,19.84,100,0,0,862.9034,0,-4.045,3.108,204,23.5,22.06,0.651801,0,49.03,56.46,33.05,34.86
"2016-08-21 22:50:00",249750,0,0,20.15,100,0,0,862.8572,0,-4.046,3.108,206,23.42,22.15,0.8223304,0,49.03,56.41,33.05,34.84
"2016-08-21 23:00:00",249751,0.052,28.51,20.17,100,0,0,862.8572,0,-3.942,3.107,204,23.45,22.16,0.7275919,0,49.03,56.41,33.05,34.84
"2016-08-21 23:10:00",249752,0.034,32.66,20.18,100,0,0,862.8361,0,-4.069,3.108,198,23.36,22.15,0.7124337,0,49.03,56.41,33.05,34.84
"2016-08-21 23:20:00",249753,0,0,19.88,100,0,0,862.7665,0,-4.189,3.111,197,23.35,22.15,0.1856875,0,49.03,56.41,33.05,34.84
"2016-08-21 23:30:00",249754,0,0,19.71,100,0,0,862.7097,0,-4.196,3.112,204,23.37,22.15,0.2273725,0,49.03,56.41,33.05,34.84
"2016-08-21 23:40:00",249755,0.07,66.48,19.67,100,0.03537255,0,862.6127,0,-4.053,3.109,204,23.33,22.15,0.4433763,0.434,49.03,56.41,33.05,34.84
"2016-08-21 23:50:00",249756,0.314,16.44,19.97,100,0.1572113,0,862.6044,0,-3.87,3.107,203,23.3,22.15,0.74275,1.326,49.03,56.41,33.05,34.84
